AG6V Weather Reports


Display with metric or nautical units.
time (UTC)temp
F
wind
direction
speed
MPH
gust
MPH
rain 1hr
in
rain 24hr
in
rain mn
in
humidity
%
barometer
mb
20260503203045 78 360 0.0 0.0 0.00 0.00 0.00 50 1013.3
20260503201541 77 315 0.0 0.0 0.00 0.00 0.00 51 1013.4
20260503200040 75 26 0.0 0.0 0.00 0.00 0.00 52 1013.7
20260503194542 74 19 0.0 0.0 0.00 0.00 0.00 49 1013.7
20260503193044 76 14 0.0 0.0 0.00 0.00 0.00 48 1013.8
20260503191601 77 274 0.0 0.0 0.00 0.00 0.00 48 1014.0
20260503190033 77 270 0.0 0.0 0.00 0.00 0.00 49 1014.1
20260503184526 75 306 0.0 0.0 0.00 0.00 0.00 48 1014.3
20260503183020 73 344 0.0 0.0 0.00 0.00 0.00 53 1014.5
20260503181516 71 360 0.0 0.0 0.00 0.00 0.00 55 1014.6
20260503180013 70 238 0.0 0.0 0.00 0.00 0.00 58 1014.7
20260503174509 67 321 0.0 0.0 0.00 0.00 0.00 63 1014.9
20260503173005 65 355 0.0 1.0 0.00 0.00 0.00 67 1015.0
20260503171600 63 287 0.0 0.0 0.00 0.00 0.00 70 1015.1
20260503170111 62 294 0.0 2.0 0.00 0.00 0.00 70 1015.2
20260503081504 56 253 0.0 0.0 0.00 0.00 0.00 78 1015.2
20260503071613 57 253 0.0 0.0 0.00 0.00 0.00 77 1015.1
20260503054609 56 253 0.0 0.0 0.00 0.00 0.00 76 1014.9
20260503053054 57 253 0.0 0.0 0.00 0.00 0.00 76 1014.9
20260503051554 57 253 0.0 0.0 0.00 0.00 0.00 76 1014.9
20260503050053 57 253 0.0 0.0 0.00 0.00 0.00 76 1014.9
20260503044553 57 254 0.0 0.0 0.00 0.00 0.00 76 1014.8
20260503043056 58 192 0.0 0.0 0.00 0.00 0.00 75 1014.7
20260503041552 59 192 0.0 0.0 0.00 0.00 0.00 72 1014.6
20260503040055 60 194 0.0 0.0 0.00 0.00 0.00 72 1014.6
20260503034551 61 290 0.0 0.0 0.00 0.00 0.00 72 1014.3
20260503033050 62 290 0.0 0.0 0.00 0.00 0.00 68 1014.1
20260503031550 64 288 0.0 0.0 0.00 0.00 0.00 65 1014.0
20260503030049 65 288 0.0 0.0 0.00 0.00 0.00 63 1013.7
20260503024549 67 273 0.0 0.0 0.00 0.00 0.00 61 1013.8
20260503023054 68 261 0.0 0.0 0.00 0.00 0.00 56 1013.7
20260503021548 68 296 0.0 0.0 0.00 0.00 0.00 56 1013.7
20260503020047 69 280 0.0 0.0 0.00 0.00 0.00 56 1013.9
20260503014557 70 345 0.0 0.0 0.00 0.00 0.00 57 1013.9
20260503013045 70 347 0.0 0.0 0.00 0.00 0.00 55 1014.2
20260503011543 71 347 0.0 0.0 0.00 0.00 0.00 55 1014.3
20260503010048 73 265 0.0 0.0 0.00 0.00 0.00 53 1014.3
20260503004546 75 35 0.0 0.0 0.00 0.00 0.00 50 1014.4
20260503003046 76 234 0.0 0.0 0.00 0.00 0.00 48 1014.4
20260503001546 76 282 0.0 0.0 0.00 0.00 0.00 47 1014.5
20260503000042 76 300 0.0 0.0 0.00 0.00 0.00 47 1014.6
20260502234548 78 329 0.0 0.0 0.00 0.00 0.00 47 1014.9
20260502233040 79 336 0.0 0.0 0.00 0.00 0.00 46 1014.9
20260502231533 78 213 0.0 0.0 0.00 0.00 0.00 46 1015.0
20260502230034 79 316 0.0 0.0 0.00 0.00 0.00 48 1015.1
20260502224528 78 42 0.0 0.0 0.00 0.00 0.00 50 1015.3
20260502223036 77 344 0.0 0.0 0.00 0.00 0.00 51 1015.5
20260502221522 75 294 0.0 0.0 0.00 0.00 0.00 54 1015.7
20260502220024 76 9 0.0 0.0 0.00 0.00 0.00 55 1016.0
20260502214519 76 202 0.0 0.0 0.00 0.00 0.00 54 1016.2
20260502213017 76 272 0.0 0.0 0.00 0.00 0.00 54 1016.3
20260502211516 75 307 0.0 0.0 0.00 0.00 0.00 55 1016.3
20260502210014 75 349 0.0 0.0 0.00 0.00 0.00 56 1016.3
20260502204513 75 281 0.0 0.0 0.00 0.00 0.00 56 1016.6